Simultaneous Nadir Overpasses (SNOs) Predictions

Prediction of SNOs between GOES-14 and AQUA Satellite Orbit:

Table of predicted SNOs for the next 14.0 days since TLE Epoch: 9/18/2021
Index Date Time (GOES-14) GOES-14 Lat,Lon AQUA Lat,Lon Distance(km) Time Diff (sec)
1 09/19/2021 08:20:44 0.36,-104.19 -0.18,-101.66 287.19 80
2 09/19/2021 20:42:09 -0.35,-104.24 -0.89,-106.86 298.30 80
3 09/21/2021 20:32:38 -0.35,-104.24 -0.29,-103.90 38.32 80
4 09/23/2021 20:20:28 -0.35,-104.25 0.38,-100.96 375.37 80
5 09/24/2021 08:41:44 0.34,-104.23 0.71,-106.12 213.64 80
6 09/26/2021 08:26:53 0.34,-104.23 0.10,-103.16 122.32 80
7 09/26/2021 20:48:17 -0.32,-104.23 -1.22,-108.35 468.50 80
8 09/28/2021 08:14:42 0.34,-104.23 -0.51,-100.20 458.19 80
9 09/28/2021 20:36:06 -0.32,-104.23 -0.60,-105.39 131.93 80
10 09/30/2021 20:26:36 -0.32,-104.24 0.09,-102.45 204.36 80
11 10/01/2021 08:47:52 0.30,-104.27 1.00,-107.60 379.46 80
